Overview Statistics Trail Chart Weather Telemetry Raw packets
 

This is the latest recevied weather packets stored in our database for station/object HB9FHL-13. If no packets are shown the sender has not sent any weather packets the latest 10 day(s).

<< 126 127 128 129 130 131 132 >>
Time Temp. Humidity Pressure Rain* Wind** Luminosity Snow
1787870566 26.67° C - 1018.4 hPa 0 mm - - -
1787870266 27.78° C - 1006.2 hPa 0 mm - - -
1787869965 27.78° C - 1017.4 hPa 0 mm - - -
1787869667 27.78° C - 1020.4 hPa 0 mm - - -
1787869364 27.78° C - 1009.7 hPa 0 mm - - -
1787869062 28.33° C - 1009.6 hPa 0 mm - - -
1787868765 28.33° C - 1016.9 hPa 0 mm - - -
1787868503 27.22° C - 1007.7 hPa 0 mm - - -
1787868461 27.22° C - 1007.7 hPa 0 mm - - -
1787868160 27.78° C - 1010.4 hPa 0 mm - - -
1787867860 28.89° C - 1022.1 hPa 0 mm - - -
1787867559 30° C - 1016.7 hPa 0 mm - - -
1787867301 27.78° C - 1013.2 hPa 0 mm - - -
1787867260 27.78° C - 1013.2 hPa 0 mm - - -
1787866958 27.78° C - 1012.5 hPa 0 mm - - -
1787866657 28.33° C - 1011.6 hPa 0 mm - - -
1787866357 27.22° C - 1024.3 hPa 0 mm - - -
1787866056 27.78° C - 1013 hPa 0 mm - - -
1787865756 28.33° C - 1016.9 hPa 0 mm - - -
1787865455 27.78° C - 1009.3 hPa 0 mm - - -
1787865155 27.78° C - 1011.7 hPa 0 mm - - -
1787864854 28.33° C - 1013.5 hPa 0 mm - - -
1787864554 27.78° C - 1008.1 hPa 0 mm - - -
1787864253 26.67° C - 1015.8 hPa 0 mm - - -
1787864000 25.56° C - 1010.4 hPa 0 mm - - -

* Rain since midnight (hover to see other rain measurements)
** Current wind speed in m/s (hover to see current wind gust speed)